Regional Weather Roundup
Issued by NWS

Home | Current Version | Previous Version | Text Only | Print | Product List | Glossary Off
Versions: 1 2 3 4 5 6 7 8 9 10 11 12 13 14 15 16 17 18 19 20 21 22 23 24 25 26 27

000
ASUS45 KBOU 192207
RWRCO

WEATHER ROUNDUP FOR COLORADO
NATIONAL WEATHER SERVICE DENVER/BOULDER CO
400 PM MDT THU OCT 19 2017

NOTE: "FAIR" INDICATES FEW OR NO CLOUDS BELOW 12000 FEET WITH NO
SIGNIFICANT WEATHER AND/OR OBSTRUCTIONS TO VISIBILITY.

COZ001>005-013-030-031-192300-
...NORTHWEST COLORADO...

CITY           SKY/WX    TMP DP  RH WIND       PRES   REMARKS
CRAIG          FAIR      72  21  14 W13       30.00F
HAYDEN         FAIR      69  24  18 NW8       30.03F
MEEKER         PTSUNNY   69  27  20 SW16G24   30.02S
RABBIT EARS PA FAIR      54  21  28 W7        30.26S
STEAMBOAT SPGS FAIR      68  23  18 W7        30.04S
WALDEN         NOT AVBL
$$

COZ006>008-011-192300-
...WEST CENTRAL VALLEYS...

CITY           SKY/WX    TMP DP  RH WIND       PRES   REMARKS
GRAND JUNCTION FAIR      70  20  15 W6        29.97F
MONTROSE       FAIR      73  25  16 N10       30.01F
EAGLE          FAIR      71  23  16 W14       30.03F
RIFLE          FAIR      71  23  16 W14       29.98F
DELTA          FAIR      78  30  17 W9        29.97F
NUCLA          FAIR      72  27  18 W14       30.07S
$$

COZ017>023-064>068-192300-
...SOUTHWEST COLORADO...

CITY           SKY/WX    TMP DP  RH WIND       PRES   REMARKS
DURANGO        CLOUDY    68  27  21 S9        30.08F
CORTEZ         CLOUDY    69  25  19 N6        30.06S
PAGOSA SPRINGS FAIR      68  15  13 SW10      30.14S
TELLURIDE      CLOUDY    58  24  26 SW12G21   30.22R
WOLF CREEK PAS FAIR      45  19  36 SW12G24   30.42S
$$

COZ009-010-012-014-032>034-037-058>063-192300-
...CENTRAL COLORADO...

CITY           SKY/WX    TMP DP  RH WIND       PRES   REMARKS
ASPEN          FAIR      66  22  18 N13       30.07F
BUENA VISTA    FAIR      66  13  12 SE9       30.10F
COPPER MTN     FAIR      52  19  28 NW13      30.36S
BERTHOUD PASS  PTSUNNY   39  32  75 CALM      30.38S
COTTONWOOD PAS FAIR      63  12  14 SE10      30.22F
GUNNISON       FAIR      68  24  19 SW10      30.09F
KREMMLING      FAIR      73  18  12 W13       30.07S
LEADVILLE      PTSUNNY   57  12  17 W3        30.19S
MONARCH PASS   FAIR      46  18  31 CALM      30.46F
SALIDA         FAIR      71  12  10 S12G17    30.15S
SUNLIGHT       PTSUNNY   46  18  31 SW6       30.32S
WILKERSON PASS FAIR      52   7  16 CALM      30.35S
$$

COZ069>075-192300-
...SAN LUIS VALLEY/SANGRE DE CRISTO MOUNTAINS...

CITY           SKY/WX    TMP DP  RH WIND       PRES   REMARKS
ALAMOSA        FAIR      67  12  12 SE6       30.10F
DEL NORTE      FAIR      64  21  19 E5        30.14F
LA VETA PASS   FAIR      57  16  19 S18       30.37F
SAGUACHE       FAIR      64  16  15 S8        30.14F
$$

COZ035-036-038>040-192300-
...NORTHERN COLORADO FRONT RANGE...

CITY           SKY/WX    TMP DP  RH WIND       PRES   REMARKS
DENVER INTL AP PTSUNNY   73  30  20 N10       29.93F
DMNS CITY PARK   N/A     73  22  14 N12G18    29.92F
AURORA         PTSUNNY   77  25  14 S9        29.94F
FRONT RANGE AP PTSUNNY   77  27  15 E7        29.93R
ERIE MUNI ARPT FAIR      72  25  17 N5        29.97F
BOULDER MUN AP FAIR      70  30  23 NE3       29.93F
CENTENNIAL     PTSUNNY   75  21  13 S15       29.95S
BROOMFIELD     PTSUNNY   73  25  16 N7        29.96F
FORT COLLINS   FAIR      68  29  23 W3        29.93F
LONGMONT       FAIR      71  32  23 N3        29.94F
$$

COZ041-046-047-076>085-087-088-192300-
...PIKES PEAK/PALMER DIVIDE AND SOUTHERN FOOTHILLS...

CITY           SKY/WX    TMP DP  RH WIND       PRES   REMARKS
COLO. SPRINGS  PTSUNNY   71  25  17 S16       30.03S
A. F. ACADEMY  FAIR      70  20  15 S13       30.03S
SCHRIEVER AFB  FAIR      68  20  15 S13       30.04S
CHEYENNE MTN   FAIR      65  21  19 SE10      30.01S
ELLICOTT       FAIR     N/A N/A N/A S12       30.02F
FALCON         FAIR      65  17  15 S16       30.07S
FORT CARSON    FAIR      72  26  17 SE15      30.00S
LIMON          FAIR      70  30  22 SE17G23   29.99F
MONUMENT HILL  FAIR      64  23  20 S15G22    30.07S
CANON CITY     FAIR      77  27  15 E7        29.97S
WALSENBURG     FAIR      77  23  13 SE7       29.99S
TRINIDAD       FAIR      77  16  10 S14G22    29.99F
$$

COZ042>045-048>051-090-091-192300-
...NORTHEAST COLORADO...

CITY           SKY/WX    TMP DP  RH WIND       PRES   REMARKS
GREELEY ARPT   FAIR      69  30  23 CALM      29.92F
AKRON          FAIR      78  29  16 S20G29    29.93F
BURLINGTON     FAIR      78  40  25 S20G26    29.96F
WRAY           NOT AVBL
YUMA           NOT AVBL
STERLING       FAIR      79  32  18 S15       29.86F
HOLYOKE        FAIR      84  32  15 S18       29.89F
FORT MORGAN    FAIR      80  26  13 CALM      29.90S
$$

COZ086-089-092>099-192300-
...SOUTHEAST COLORADO...

CITY           SKY/WX    TMP DP  RH WIND       PRES   REMARKS
PUEBLO         FAIR      75  26  16 SE12      29.93F
LA JUNTA       FAIR      79  38  22 E12       29.93F
LAMAR          FAIR      78  42  27 SE15G22   29.91F
SPRINGFIELD      N/A     75  42  30 S20       29.96F
$$




USA.gov is the U.S. government's official web portal to all federal, state and local government web resources and services.